KC3ICT Weather Reports


Display with metric or nautical units.
time (UTC)temp
F
wind
direction
speed
MPH
gust
MPH
rain 1hr
in
rain 24hr
in
rain mn
in
humidity
%
barometer
mb
20260504033604 41 0.0 1.0 0.00 0.00 0.00 61 1010.7
20260504032613 41 0.0 2.0 0.00 0.00 0.00 60 1010.9
20260504031543 41 0.0 2.0 0.00 0.00 0.00 63 1010.9
20260504030553 42 118 0.0 2.0 0.00 0.00 0.00 63 1010.9
20260504025543 42 0.0 2.0 0.00 0.00 0.00 62 1010.9
20260504024615 42 183 0.0 2.0 0.00 0.00 0.00 61 1011.0
20260504023605 42 0.0 2.0 0.00 0.00 0.00 60 1010.9
20260504022554 43 0.0 1.0 0.00 0.00 0.00 61 1010.8
20260504021625 43 0.0 1.0 0.00 0.00 0.00 58 1011.0
20260504020534 44 250 1.0 2.0 0.00 0.00 0.00 57 1010.8
20260504015524 44 57 0.0 1.0 0.00 0.00 0.00 53 1010.8
20260504014615 45 107 1.0 4.0 0.00 0.00 0.00 52 1010.7
20260504013605 46 126 3.0 5.0 0.00 0.00 0.00 51 1010.5
20260504012555 47 134 3.0 5.0 0.00 0.00 0.00 48 1010.5
20260504011545 46 131 3.0 6.0 0.00 0.00 0.00 50 1010.5
20260504010535 48 133 3.0 4.0 0.00 0.00 0.00 46 1010.4
20260504005526 49 124 3.0 4.0 0.00 0.00 0.00 43 1010.4
20260504004536 50 127 2.0 4.0 0.00 0.00 0.00 42 1010.3
20260504003607 52 146 2.0 4.0 0.00 0.00 0.00 40 1010.3
20260504002557 52 324 2.0 7.0 0.00 0.00 0.00 38 1010.2
20260504001547 53 294 2.0 5.0 0.00 0.00 0.00 38 1010.2
20260504000557 53 302 3.0 10.0 0.00 0.00 0.00 36 1010.1
20260503235527 54 306 7.0 13.0 0.00 0.00 0.00 35 1010.0
20260503234517 54 287 4.0 9.0 0.00 0.00 0.00 35 1010.0
20260503233608 54 301 7.0 18.0 0.00 0.00 0.00 34 1009.8
20260503232618 55 311 6.0 13.0 0.00 0.00 0.00 34 1009.9
20260503231608 55 297 7.0 15.0 0.00 0.00 0.00 33 1009.8
20260503230538 55 286 8.0 18.0 0.00 0.00 0.00 33 1009.7
20260503225528 55 303 8.0 12.0 0.00 0.00 0.00 34 1009.7
20260503224538 55 302 5.0 11.0 0.00 0.00 0.00 33 1009.8
20260503223609 55 295 8.0 15.0 0.00 0.00 0.00 33 1009.8
20260503222559 55 310 5.0 13.0 0.00 0.00 0.00 34 1009.7
20260503221549 55 320 6.0 17.0 0.00 0.00 0.00 34 1009.7
20260503220539 55 315 5.0 16.0 0.00 0.00 0.00 35 1009.8
20260503215529 55 302 8.0 16.0 0.00 0.00 0.00 34 1009.8
20260503214519 56 295 10.0 17.0 0.00 0.00 0.00 33 1009.7
20260503213610 54 307 6.0 16.0 0.00 0.00 0.00 34 1009.6
20260503212600 54 308 14.0 19.0 0.00 0.00 0.00 34 1009.6
20260503211550 54 304 9.0 19.0 0.00 0.00 0.00 34 1009.7
20260503210600 55 288 7.0 15.0 0.00 0.00 0.00 34 1009.6
20260503205530 54 295 9.0 13.0 0.00 0.00 0.00 34 1009.8
20260503204520 54 302 10.0 18.0 0.00 0.00 0.00 34 1009.7
20260503203611 54 304 7.0 18.0 0.00 0.00 0.00 34 1009.8
20260503202601 54 281 7.0 13.0 0.00 0.00 0.00 35 1009.6
20260503201551 54 337 4.0 13.0 0.00 0.00 0.00 34 1009.7
20260503200601 55 289 11.0 27.0 0.00 0.00 0.00 34 1009.8
20260503195531 55 301 9.0 19.0 0.00 0.00 0.00 37 1010.0
20260503194521 54 297 6.0 17.0 0.00 0.00 0.00 36 1010.2
20260503193612 53 302 11.0 21.0 0.00 0.00 0.00 37 1010.6
20260503192602 52 303 9.0 19.0 0.00 0.00 0.00 37 1010.7
20260503191552 53 283 7.0 21.0 0.00 0.00 0.00 37 1010.7
20260503190542 53 276 9.0 19.0 0.00 0.00 0.00 36 1010.7
20260503185532 53 303 9.0 19.0 0.00 0.00 0.00 36 1010.7
20260503184522 53 298 9.0 17.0 0.00 0.00 0.00 36 1010.9
20260503183614 53 302 11.0 20.0 0.00 0.00 0.00 36 1010.9
20260503182603 53 308 9.0 20.0 0.00 0.00 0.00 36 1010.9
20260503181553 52 319 11.0 21.0 0.00 0.00 0.00 36 1010.8
20260503180543 52 293 14.0 22.0 0.00 0.00 0.00 36 1011.1
20260503175613 51 303 7.0 16.0 0.00 0.00 0.00 37 1011.2
20260503174523 51 295 11.0 22.0 0.00 0.00 0.00 36 1011.3
20260503173614 51 282 10.0 19.0 0.00 0.00 0.00 36 1011.3
20260503172604 51 291 11.0 18.0 0.00 0.00 0.00 36 1011.3
20260503171553 50 299 6.0 17.0 0.00 0.00 0.00 36 1011.4
20260503170543 51 275 8.0 16.0 0.00 0.00 0.00 35 1011.5
20260503150545 45 270 7.0 19.0 0.00 0.00 0.00 43 1012.8
20260503130547 41 347 5.0 11.0 0.00 0.00 0.00 51 1013.3
20260503110629 33 301 1.0 4.0 0.00 0.00 0.00 77 1013.2
20260503081601 35 267 3.0 7.0 0.00 0.00 0.00 71 1012.1
20260503080551 35 274 4.0 11.0 0.00 0.00 0.00 71 1012.2
20260503072612 35 282 2.0 5.0 0.00 0.00 0.00 71 1012.1
20260503071602 35 47 0.0 2.0 0.00 0.00 0.00 72 1012.1
20260503070552 35 61 0.0 2.0 0.00 0.00 0.00 71 1012.2
20260503054534 36 316 5.0 9.0 0.00 0.00 0.00 67 1012.6
20260503053524 36 295 3.0 6.0 0.00 0.00 0.00 67 1012.6
20260503052615 37 270 5.0 8.0 0.00 0.00 0.00 65 1012.7
20260503051605 37 305 4.0 9.0 0.00 0.00 0.00 65 1012.7
20260503050555 37 307 2.0 5.0 0.00 0.00 0.00 65 1012.8
20260503045545 37 341 4.0 7.0 0.00 0.00 0.00 64 1012.9
20260503044536 37 308 5.0 6.0 0.00 0.00 0.00 65 1013.0
20260503043525 37 313 3.0 7.0 0.00 0.00 0.00 64 1013.0
20260503042616 36 317 4.0 6.0 0.00 0.00 0.00 68 1013.1
20260503041606 36 1 1.0 5.0 0.00 0.00 0.00 70 1013.2
20260503040556 36 0.0 2.0 0.00 0.00 0.00 73 1013.1
20260503035546 37 86 1.0 2.0 0.00 0.00 0.00 70 1013.0